TimeEDT,TemperatureF,Dew PointF,Humidity,Sea Level PressureIn,VisibilityMPH,Wind Direction,Wind SpeedMPH,Gust SpeedMPH,PrecipitationIn,Events,Conditions,WindDirDegrees,DateUTC
12:53 AM,54.0,44.1,69,30.12,10.0,SE,4.6,-,N/A,,Clear,130,2013-09-27 04:53:00
1:53 AM,51.1,44.1,77,30.13,10.0,Calm,Calm,-,N/A,,Clear,0,2013-09-27 05:53:00
2:53 AM,51.1,43.0,74,30.14,10.0,Calm,Calm,-,N/A,,Clear,0,2013-09-27 06:53:00
3:53 AM,46.0,43.0,89,30.14,10.0,Calm,Calm,-,N/A,,Clear,0,2013-09-27 07:53:00
4:53 AM,46.0,43.0,89,30.16,10.0,Calm,Calm,-,N/A,,Clear,0,2013-09-27 08:53:00
5:53 AM,46.0,43.0,89,30.17,10.0,Calm,Calm,-,N/A,,Clear,0,2013-09-27 09:53:00
6:53 AM,46.0,42.1,86,30.18,10.0,Calm,Calm,-,N/A,,Clear,0,2013-09-27 10:53:00
7:53 AM,45.0,42.1,90,30.20,10.0,Calm,Calm,-,N/A,,Clear,0,2013-09-27 11:53:00
8:53 AM,50.0,46.9,89,30.21,6.0,Calm,Calm,-,N/A,,Clear,0,2013-09-27 12:53:00
9:53 AM,62.1,53.1,72,30.21,8.0,ESE,4.6,-,N/A,,Clear,110,2013-09-27 13:53:00
10:53 AM,68.0,54.0,61,30.21,10.0,ESE,8.1,-,N/A,,Clear,110,2013-09-27 14:53:00
11:53 AM,73.0,54.0,51,30.20,10.0,SE,8.1,-,N/A,,Clear,130,2013-09-27 15:53:00
12:53 PM,75.0,52.0,44,30.19,10.0,Calm,Calm,-,N/A,,Clear,0,2013-09-27 16:53:00
1:53 PM,77.0,52.0,42,30.19,10.0,SSE,6.9,-,N/A,,Clear,150,2013-09-27 17:53:00
2:53 PM,78.1,54.0,43,30.16,10.0,East,11.5,-,N/A,,Clear,90,2013-09-27 18:53:00
3:53 PM,77.0,51.1,40,30.14,10.0,ESE,9.2,-,N/A,,Clear,120,2013-09-27 19:53:00
4:53 PM,78.1,52.0,40,30.13,10.0,ESE,8.1,-,N/A,,Clear,110,2013-09-27 20:53:00
5:53 PM,79.0,52.0,39,30.12,10.0,SE,9.2,-,N/A,,Clear,130,2013-09-27 21:53:00
6:53 PM,75.0,53.1,46,30.12,10.0,South,4.6,-,N/A,,Clear,190,2013-09-27 22:53:00
7:53 PM,64.9,53.1,65,30.13,10.0,ESE,3.5,-,N/A,,Clear,120,2013-09-27 23:53:00
8:53 PM,60.1,51.1,72,30.14,10.0,East,8.1,-,N/A,,Clear,80,2013-09-28 00:53:00
9:53 PM,63.0,52.0,67,30.15,10.0,ESE,8.1,-,N/A,,Clear,110,2013-09-28 01:53:00
10:53 PM,62.1,51.1,67,30.15,10.0,ESE,9.2,-,N/A,,Unknown,110,2013-09-28 02:53:00
11:53 PM,59.0,51.1,75,30.15,10.0,ESE,8.1,-,N/A,,Clear,110,2013-09-28 03:53:00